#datetime,building,power
2023-01-10T00:00:00,prt,23.83
2023-01-10T00:01:00,prt,23.41
2023-01-10T00:02:00,prt,26.55
2023-01-10T00:03:00,prt,21.82
2023-01-10T00:04:00,prt,21.90
2023-01-10T00:05:00,prt,21.36
2023-01-10T00:06:00,prt,21.55
2023-01-10T00:07:00,prt,23.00
2023-01-10T00:08:00,prt,28.92
2023-01-10T00:09:00,prt,26.54
2023-01-10T00:10:00,prt,22.16
2023-01-10T00:11:00,prt,19.94
2023-01-10T00:12:00,prt,20.43
2023-01-10T00:13:00,prt,18.49
2023-01-10T00:14:00,prt,19.92
2023-01-10T00:15:00,prt,23.58
2023-01-10T00:16:00,prt,22.65
2023-01-10T00:17:00,prt,23.82
2023-01-10T00:18:00,prt,21.70
2023-01-10T00:19:00,prt,21.95
2023-01-10T00:20:00,prt,26.94
2023-01-10T00:21:00,prt,25.76
2023-01-10T00:22:00,prt,26.76
2023-01-10T00:23:00,prt,27.01
2023-01-10T00:24:00,prt,23.48
2023-01-10T00:25:00,prt,26.97
2023-01-10T00:26:00,prt,28.23
2023-01-10T00:27:00,prt,28.22
2023-01-10T00:28:00,prt,27.65
2023-01-10T00:29:00,prt,26.20
2023-01-10T00:30:00,prt,23.73
2023-01-10T00:31:00,prt,22.16
2023-01-10T00:32:00,prt,21.25
2023-01-10T00:33:00,prt,17.87
2023-01-10T00:34:00,prt,17.48
2023-01-10T00:35:00,prt,16.88
2023-01-10T00:36:00,prt,16.04
2023-01-10T00:37:00,prt,19.50
2023-01-10T00:38:00,prt,16.74
2023-01-10T00:39:00,prt,23.05
2023-01-10T00:40:00,prt,21.71
2023-01-10T00:41:00,prt,19.96
2023-01-10T00:42:00,prt,21.05
2023-01-10T00:43:00,prt,22.97
2023-01-10T00:44:00,prt,22.03
2023-01-10T00:45:00,prt,23.82
2023-01-10T00:46:00,prt,23.92
2023-01-10T00:47:00,prt,22.23
2023-01-10T00:48:00,prt,22.93
2023-01-10T00:49:00,prt,23.34
2023-01-10T00:50:00,prt,21.88
2023-01-10T00:51:00,prt,21.03
2023-01-10T00:52:00,prt,19.68
2023-01-10T00:53:00,prt,20.77
2023-01-10T00:54:00,prt,20.41
2023-01-10T00:55:00,prt,18.70
2023-01-10T00:56:00,prt,19.30
2023-01-10T00:57:00,prt,20.30
2023-01-10T00:58:00,prt,18.54
2023-01-10T00:59:00,prt,18.17
2023-01-10T01:00:00,prt,18.55
2023-01-10T01:01:00,prt,19.15
2023-01-10T01:02:00,prt,22.73
2023-01-10T01:03:00,prt,23.44
2023-01-10T01:04:00,prt,25.40
2023-01-10T01:05:00,prt,21.78
2023-01-10T01:06:00,prt,22.34
2023-01-10T01:07:00,prt,23.87
2023-01-10T01:08:00,prt,24.94
2023-01-10T01:09:00,prt,25.99
2023-01-10T01:10:00,prt,23.77
2023-01-10T01:11:00,prt,26.64
2023-01-10T01:12:00,prt,27.75
2023-01-10T01:13:00,prt,26.36
2023-01-10T01:14:00,prt,22.47
2023-01-10T01:15:00,prt,17.98
2023-01-10T01:16:00,prt,18.50
2023-01-10T01:17:00,prt,18.06
2023-01-10T01:18:00,prt,17.99
2023-01-10T01:19:00,prt,19.07
2023-01-10T01:20:00,prt,20.72
2023-01-10T01:21:00,prt,20.96
2023-01-10T01:22:00,prt,22.23
2023-01-10T01:23:00,prt,19.75
2023-01-10T01:24:00,prt,19.25
2023-01-10T01:25:00,prt,20.30
2023-01-10T01:26:00,prt,27.19
2023-01-10T01:27:00,prt,28.61
2023-01-10T01:28:00,prt,27.32
2023-01-10T01:29:00,prt,26.76
2023-01-10T01:30:00,prt,26.72
2023-01-10T01:31:00,prt,22.21
2023-01-10T01:32:00,prt,22.24
2023-01-10T01:33:00,prt,20.52
2023-01-10T01:34:00,prt,21.53
2023-01-10T01:35:00,prt,21.96
2023-01-10T01:36:00,prt,15.27
2023-01-10T01:37:00,prt,15.20
2023-01-10T01:38:00,prt,18.21
2023-01-10T01:39:00,prt,18.90
2023-01-10T01:40:00,prt,18.97
2023-01-10T01:41:00,prt,18.80
2023-01-10T01:42:00,prt,17.00
2023-01-10T01:43:00,prt,19.08
2023-01-10T01:44:00,prt,18.53
2023-01-10T01:45:00,prt,18.28
2023-01-10T01:46:00,prt,16.81
2023-01-10T01:47:00,prt,21.58
2023-01-10T01:48:00,prt,27.14
2023-01-10T01:49:00,prt,25.11
2023-01-10T01:50:00,prt,26.68
2023-01-10T01:51:00,prt,27.13
2023-01-10T01:52:00,prt,27.13
2023-01-10T01:53:00,prt,23.09
2023-01-10T01:54:00,prt,24.49
2023-01-10T01:55:00,prt,20.57
2023-01-10T01:56:00,prt,21.29
2023-01-10T01:57:00,prt,19.47
2023-01-10T01:58:00,prt,18.63
2023-01-10T01:59:00,prt,19.31
2023-01-10T02:00:00,prt,22.01
2023-01-10T02:01:00,prt,22.46
2023-01-10T02:02:00,prt,21.35
2023-01-10T02:03:00,prt,19.46
2023-01-10T02:04:00,prt,18.44
2023-01-10T02:05:00,prt,18.56
2023-01-10T02:06:00,prt,20.67
2023-01-10T02:07:00,prt,18.31
2023-01-10T02:08:00,prt,17.43
2023-01-10T02:09:00,prt,20.73
2023-01-10T02:10:00,prt,25.37
2023-01-10T02:11:00,prt,21.83
2023-01-10T02:12:00,prt,23.37
2023-01-10T02:13:00,prt,23.22
2023-01-10T02:14:00,prt,26.03
2023-01-10T02:15:00,prt,27.87
2023-01-10T02:16:00,prt,28.73
2023-01-10T02:17:00,prt,23.98
2023-01-10T02:18:00,prt,22.33
2023-01-10T02:19:00,prt,19.37
2023-01-10T02:20:00,prt,18.90
2023-01-10T02:21:00,prt,18.16
2023-01-10T02:22:00,prt,22.52
2023-01-10T02:23:00,prt,18.01
2023-01-10T02:24:00,prt,17.53
2023-01-10T02:25:00,prt,17.26
2023-01-10T02:26:00,prt,18.33
2023-01-10T02:27:00,prt,19.75
2023-01-10T02:28:00,prt,19.37
2023-01-10T02:29:00,prt,22.17
2023-01-10T02:30:00,prt,24.33
2023-01-10T02:31:00,prt,25.88
2023-01-10T02:32:00,prt,26.63
2023-01-10T02:33:00,prt,25.69
2023-01-10T02:34:00,prt,25.69
2023-01-10T02:35:00,prt,28.07
2023-01-10T02:36:00,prt,26.26
2023-01-10T02:37:00,prt,26.03
2023-01-10T02:38:00,prt,29.07
2023-01-10T02:39:00,prt,28.69
2023-01-10T02:40:00,prt,27.83
2023-01-10T02:41:00,prt,19.82
2023-01-10T02:42:00,prt,17.45
2023-01-10T02:43:00,prt,29.11
2023-01-10T02:44:00,prt,24.12
2023-01-10T02:45:00,prt,21.48
2023-01-10T02:46:00,prt,19.27
2023-01-10T02:47:00,prt,15.68
2023-01-10T02:48:00,prt,16.72
2023-01-10T02:49:00,prt,16.96
2023-01-10T02:50:00,prt,17.34
2023-01-10T02:51:00,prt,18.71
2023-01-10T02:52:00,prt,21.97
2023-01-10T02:53:00,prt,21.96
2023-01-10T02:54:00,prt,21.79
2023-01-10T02:55:00,prt,20.98
2023-01-10T02:56:00,prt,19.80
2023-01-10T02:57:00,prt,22.82
2023-01-10T02:58:00,prt,23.37
2023-01-10T02:59:00,prt,20.01
2023-01-10T03:00:00,prt,21.26
2023-01-10T03:01:00,prt,21.89
2023-01-10T03:02:00,prt,24.21
2023-01-10T03:03:00,prt,23.07
2023-01-10T03:04:00,prt,24.32
2023-01-10T03:05:00,prt,20.94
2023-01-10T03:06:00,prt,18.07
2023-01-10T03:07:00,prt,17.48
2023-01-10T03:08:00,prt,17.97
2023-01-10T03:09:00,prt,21.20
2023-01-10T03:10:00,prt,21.52
2023-01-10T03:11:00,prt,22.25
2023-01-10T03:12:00,prt,20.53
2023-01-10T03:13:00,prt,22.69
2023-01-10T03:14:00,prt,24.95
2023-01-10T03:15:00,prt,25.93
2023-01-10T03:16:00,prt,22.52
2023-01-10T03:17:00,prt,22.60
2023-01-10T03:18:00,prt,22.92
2023-01-10T03:19:00,prt,23.53
2023-01-10T03:20:00,prt,25.47
2023-01-10T03:21:00,prt,22.21
2023-01-10T03:22:00,prt,21.17
2023-01-10T03:23:00,prt,22.82
2023-01-10T03:24:00,prt,20.52
2023-01-10T03:25:00,prt,18.69
2023-01-10T03:26:00,prt,17.69
2023-01-10T03:27:00,prt,22.80
2023-01-10T03:28:00,prt,21.52
2023-01-10T03:29:00,prt,24.04
2023-01-10T03:30:00,prt,18.52
2023-01-10T03:31:00,prt,17.41
2023-01-10T03:32:00,prt,20.26
2023-01-10T03:33:00,prt,17.73
2023-01-10T03:34:00,prt,18.53
2023-01-10T03:35:00,prt,18.98
2023-01-10T03:36:00,prt,22.92
2023-01-10T03:37:00,prt,21.14
2023-01-10T03:38:00,prt,22.38
2023-01-10T03:39:00,prt,23.13
2023-01-10T03:40:00,prt,22.14
2023-01-10T03:41:00,prt,22.89
2023-01-10T03:42:00,prt,20.15
2023-01-10T03:43:00,prt,20.11
2023-01-10T03:44:00,prt,23.44
2023-01-10T03:45:00,prt,25.31
2023-01-10T03:46:00,prt,29.87
2023-01-10T03:47:00,prt,28.53
2023-01-10T03:48:00,prt,27.12
2023-01-10T03:49:00,prt,19.71
2023-01-10T03:50:00,prt,19.20
2023-01-10T03:51:00,prt,21.41
2023-01-10T03:52:00,prt,21.34
2023-01-10T03:53:00,prt,21.79
2023-01-10T03:54:00,prt,20.32
2023-01-10T03:55:00,prt,19.10
2023-01-10T03:56:00,prt,19.87
2023-01-10T03:57:00,prt,22.50
2023-01-10T03:58:00,prt,24.23
2023-01-10T03:59:00,prt,24.13
2023-01-10T04:00:00,prt,23.51
2023-01-10T04:01:00,prt,29.47
2023-01-10T04:02:00,prt,30.38
2023-01-10T04:03:00,prt,31.70
2023-01-10T04:04:00,prt,29.44
2023-01-10T04:05:00,prt,28.89
2023-01-10T04:06:00,prt,31.57
2023-01-10T04:07:00,prt,28.30
2023-01-10T04:08:00,prt,24.28
2023-01-10T04:09:00,prt,23.45
2023-01-10T04:10:00,prt,27.27
2023-01-10T04:11:00,prt,23.54
2023-01-10T04:12:00,prt,24.46
2023-01-10T04:13:00,prt,25.12
2023-01-10T04:14:00,prt,25.15
2023-01-10T04:15:00,prt,27.81
2023-01-10T04:16:00,prt,28.20
2023-01-10T04:17:00,prt,28.96
2023-01-10T04:18:00,prt,27.93
2023-01-10T04:19:00,prt,29.63
2023-01-10T04:20:00,prt,29.73
2023-01-10T04:21:00,prt,31.25
2023-01-10T04:22:00,prt,30.89
2023-01-10T04:23:00,prt,31.70
2023-01-10T04:24:00,prt,32.30
2023-01-10T04:25:00,prt,28.36
2023-01-10T04:26:00,prt,31.92
2023-01-10T04:27:00,prt,32.27
2023-01-10T04:28:00,prt,32.37
2023-01-10T04:29:00,prt,35.31
2023-01-10T04:30:00,prt,31.91
2023-01-10T04:31:00,prt,28.71
2023-01-10T04:32:00,prt,29.00
2023-01-10T04:33:00,prt,29.94
2023-01-10T04:34:00,prt,31.19
2023-01-10T04:35:00,prt,25.54
2023-01-10T04:36:00,prt,26.30
2023-01-10T04:37:00,prt,24.41
2023-01-10T04:38:00,prt,26.86
2023-01-10T04:39:00,prt,28.81
2023-01-10T04:40:00,prt,33.01
2023-01-10T04:41:00,prt,39.43
2023-01-10T04:42:00,prt,41.27
2023-01-10T04:43:00,prt,35.80
2023-01-10T04:44:00,prt,32.33
2023-01-10T04:45:00,prt,35.05
2023-01-10T04:46:00,prt,32.78
2023-01-10T04:47:00,prt,33.11
2023-01-10T04:48:00,prt,33.91
2023-01-10T04:49:00,prt,34.30
2023-01-10T04:50:00,prt,34.42
2023-01-10T04:51:00,prt,26.73
2023-01-10T04:52:00,prt,27.55
2023-01-10T04:53:00,prt,30.72
2023-01-10T04:54:00,prt,35.88
2023-01-10T04:55:00,prt,36.58
2023-01-10T04:56:00,prt,35.75
2023-01-10T04:57:00,prt,33.18
2023-01-10T04:58:00,prt,34.48
2023-01-10T04:59:00,prt,32.25
2023-01-10T05:00:00,prt,29.77
2023-01-10T05:01:00,prt,29.44
2023-01-10T05:02:00,prt,28.66
2023-01-10T05:03:00,prt,31.53
2023-01-10T05:04:00,prt,35.45
2023-01-10T05:05:00,prt,36.48
2023-01-10T05:06:00,prt,36.92
2023-01-10T05:07:00,prt,33.98
2023-01-10T05:08:00,prt,34.77
2023-01-10T05:09:00,prt,35.52
2023-01-10T05:10:00,prt,36.80
2023-01-10T05:11:00,prt,34.34
2023-01-10T05:12:00,prt,32.83
2023-01-10T05:13:00,prt,33.00
2023-01-10T05:14:00,prt,30.90
2023-01-10T05:15:00,prt,29.35
2023-01-10T05:16:00,prt,31.36
2023-01-10T05:17:00,prt,28.12
2023-01-10T05:18:00,prt,29.73
2023-01-10T05:19:00,prt,32.19
2023-01-10T05:20:00,prt,34.79
2023-01-10T05:21:00,prt,36.10
2023-01-10T05:22:00,prt,35.84
2023-01-10T05:23:00,prt,35.37
2023-01-10T05:24:00,prt,37.10
2023-01-10T05:25:00,prt,40.72
2023-01-10T05:26:00,prt,44.92
2023-01-10T05:27:00,prt,44.84
2023-01-10T05:28:00,prt,39.97
2023-01-10T05:29:00,prt,43.65
2023-01-10T05:30:00,prt,46.83
2023-01-10T05:31:00,prt,41.88
2023-01-10T05:32:00,prt,38.98
2023-01-10T05:33:00,prt,40.40
2023-01-10T05:34:00,prt,39.44
2023-01-10T05:35:00,prt,34.97
2023-01-10T05:36:00,prt,35.13
2023-01-10T05:37:00,prt,38.75
2023-01-10T05:38:00,prt,45.84
2023-01-10T05:39:00,prt,44.80
2023-01-10T05:40:00,prt,41.31
2023-01-10T05:41:00,prt,39.75
2023-01-10T05:42:00,prt,40.48
2023-01-10T05:43:00,prt,42.23
2023-01-10T05:44:00,prt,42.82
2023-01-10T05:45:00,prt,43.62
2023-01-10T05:46:00,prt,49.61
2023-01-10T05:47:00,prt,53.91
2023-01-10T05:48:00,prt,51.67
2023-01-10T05:49:00,prt,50.55
2023-01-10T05:50:00,prt,48.71
2023-01-10T05:51:00,prt,48.39
2023-01-10T05:52:00,prt,48.27
2023-01-10T05:53:00,prt,47.33
2023-01-10T05:54:00,prt,61.62
2023-01-10T05:55:00,prt,54.52
2023-01-10T05:56:00,prt,55.51
2023-01-10T05:57:00,prt,58.14
2023-01-10T05:58:00,prt,68.38
2023-01-10T05:59:00,prt,67.83
2023-01-10T06:00:00,prt,66.80
2023-01-10T06:01:00,prt,71.96
2023-01-10T06:02:00,prt,76.20
2023-01-10T06:03:00,prt,78.01
2023-01-10T06:04:00,prt,70.76
2023-01-10T06:05:00,prt,71.75
2023-01-10T06:06:00,prt,72.95
2023-01-10T06:07:00,prt,74.01
2023-01-10T06:08:00,prt,75.86
2023-01-10T06:09:00,prt,70.77
2023-01-10T06:10:00,prt,65.62
2023-01-10T06:11:00,prt,64.38
2023-01-10T06:12:00,prt,67.42
2023-01-10T06:13:00,prt,64.56
2023-01-10T06:14:00,prt,82.37
2023-01-10T06:15:00,prt,67.66
2023-01-10T06:16:00,prt,70.22
2023-01-10T06:17:00,prt,74.22
2023-01-10T06:18:00,prt,62.53
2023-01-10T06:19:00,prt,61.90
2023-01-10T06:20:00,prt,61.40
2023-01-10T06:21:00,prt,69.34
2023-01-10T06:22:00,prt,77.36
2023-01-10T06:23:00,prt,68.30
2023-01-10T06:24:00,prt,71.22
2023-01-10T06:25:00,prt,78.85
2023-01-10T06:26:00,prt,77.60
2023-01-10T06:27:00,prt,75.98
2023-01-10T06:28:00,prt,70.27
2023-01-10T06:29:00,prt,71.06
2023-01-10T06:30:00,prt,69.62
2023-01-10T06:31:00,prt,64.20
2023-01-10T06:32:00,prt,69.01
2023-01-10T06:33:00,prt,69.17
2023-01-10T06:34:00,prt,70.88
2023-01-10T06:35:00,prt,62.63
2023-01-10T06:36:00,prt,69.78
2023-01-10T06:37:00,prt,65.45
2023-01-10T06:38:00,prt,72.72
2023-01-10T06:39:00,prt,77.29
2023-01-10T06:40:00,prt,71.02
2023-01-10T06:41:00,prt,71.99
2023-01-10T06:42:00,prt,71.88
2023-01-10T06:43:00,prt,76.83
2023-01-10T06:44:00,prt,84.47
2023-01-10T06:45:00,prt,64.59
2023-01-10T06:46:00,prt,65.11
2023-01-10T06:47:00,prt,66.96
2023-01-10T06:48:00,prt,66.51
2023-01-10T06:49:00,prt,71.10
2023-01-10T06:50:00,prt,76.94
2023-01-10T06:51:00,prt,70.01
2023-01-10T06:52:00,prt,70.44
2023-01-10T06:53:00,prt,65.93
2023-01-10T06:54:00,prt,75.06
2023-01-10T06:55:00,prt,77.48
2023-01-10T06:56:00,prt,67.58
2023-01-10T06:57:00,prt,68.32
2023-01-10T06:58:00,prt,77.48
2023-01-10T06:59:00,prt,79.02
2023-01-10T07:00:00,prt,74.35
2023-01-10T07:01:00,prt,75.69
2023-01-10T07:02:00,prt,76.09
2023-01-10T07:03:00,prt,76.33
2023-01-10T07:04:00,prt,72.72
2023-01-10T07:05:00,prt,75.28
2023-01-10T07:06:00,prt,77.17
2023-01-10T07:07:00,prt,89.48
2023-01-10T07:08:00,prt,74.36
2023-01-10T07:09:00,prt,73.46
2023-01-10T07:10:00,prt,76.21
2023-01-10T07:11:00,prt,71.23
2023-01-10T07:12:00,prt,77.08
2023-01-10T07:13:00,prt,81.13
2023-01-10T07:14:00,prt,76.00
2023-01-10T07:15:00,prt,71.45
2023-01-10T07:16:00,prt,72.97
2023-01-10T07:17:00,prt,77.61
2023-01-10T07:18:00,prt,74.86
2023-01-10T07:19:00,prt,99.14
2023-01-10T07:20:00,prt,79.37
2023-01-10T07:21:00,prt,82.27
2023-01-10T07:22:00,prt,85.42
2023-01-10T07:23:00,prt,92.07
2023-01-10T07:24:00,prt,91.12
2023-01-10T07:25:00,prt,79.01
2023-01-10T07:26:00,prt,73.81
2023-01-10T07:27:00,prt,72.39
2023-01-10T07:28:00,prt,75.41
2023-01-10T07:29:00,prt,76.55
2023-01-10T07:30:00,prt,75.66
2023-01-10T07:31:00,prt,73.23
2023-01-10T07:32:00,prt,77.96
2023-01-10T07:33:00,prt,76.28
2023-01-10T07:34:00,prt,75.99
2023-01-10T07:35:00,prt,85.90
2023-01-10T07:36:00,prt,77.33
2023-01-10T07:37:00,prt,84.46
2023-01-10T07:38:00,prt,85.64
2023-01-10T07:39:00,prt,86.05
2023-01-10T07:40:00,prt,85.37
2023-01-10T07:41:00,prt,86.87
2023-01-10T07:42:00,prt,76.72
2023-01-10T07:43:00,prt,76.40
2023-01-10T07:44:00,prt,85.54
2023-01-10T07:45:00,prt,85.29
2023-01-10T07:46:00,prt,83.50
2023-01-10T07:47:00,prt,82.09
2023-01-10T07:48:00,prt,90.44
2023-01-10T07:49:00,prt,86.67
2023-01-10T07:50:00,prt,82.33
2023-01-10T07:51:00,prt,75.88
2023-01-10T07:52:00,prt,78.01
2023-01-10T07:53:00,prt,78.11
2023-01-10T07:54:00,prt,78.00
2023-01-10T07:55:00,prt,76.67
2023-01-10T07:56:00,prt,78.10
2023-01-10T07:57:00,prt,81.69
2023-01-10T07:58:00,prt,88.12
2023-01-10T07:59:00,prt,85.79
2023-01-10T08:00:00,prt,84.41
2023-01-10T08:01:00,prt,93.63
2023-01-10T08:02:00,prt,86.29
2023-01-10T08:03:00,prt,91.42
2023-01-10T08:04:00,prt,83.45
2023-01-10T08:05:00,prt,87.00
2023-01-10T08:06:00,prt,86.97
2023-01-10T08:07:00,prt,83.66
2023-01-10T08:08:00,prt,78.81
2023-01-10T08:09:00,prt,77.22
2023-01-10T08:10:00,prt,75.66
2023-01-10T08:11:00,prt,84.01
2023-01-10T08:12:00,prt,88.77
2023-01-10T08:13:00,prt,90.08
2023-01-10T08:14:00,prt,102.58
2023-01-10T08:15:00,prt,98.07
2023-01-10T08:16:00,prt,91.66
2023-01-10T08:17:00,prt,92.98
2023-01-10T08:18:00,prt,98.88
2023-01-10T08:19:00,prt,109.44
2023-01-10T08:20:00,prt,111.26
2023-01-10T08:21:00,prt,110.46
2023-01-10T08:22:00,prt,100.32
2023-01-10T08:23:00,prt,115.10
2023-01-10T08:24:00,prt,104.45
2023-01-10T08:25:00,prt,106.95
2023-01-10T08:26:00,prt,105.33
2023-01-10T08:27:00,prt,108.14
2023-01-10T08:28:00,prt,102.22
2023-01-10T08:29:00,prt,104.29
2023-01-10T08:30:00,prt,112.15
2023-01-10T08:31:00,prt,105.73
2023-01-10T08:32:00,prt,110.62
2023-01-10T08:33:00,prt,92.63
2023-01-10T08:34:00,prt,92.55
2023-01-10T08:35:00,prt,85.37
2023-01-10T08:36:00,prt,89.93
2023-01-10T08:37:00,prt,80.42
2023-01-10T08:38:00,prt,76.58
2023-01-10T08:39:00,prt,82.53
2023-01-10T08:40:00,prt,94.03
2023-01-10T08:41:00,prt,94.13
2023-01-10T08:42:00,prt,90.87
2023-01-10T08:43:00,prt,101.73
2023-01-10T08:44:00,prt,98.34
2023-01-10T08:45:00,prt,99.33
2023-01-10T08:46:00,prt,94.67
2023-01-10T08:47:00,prt,109.13
2023-01-10T08:48:00,prt,86.83
2023-01-10T08:49:00,prt,85.85
2023-01-10T08:50:00,prt,100.64
2023-01-10T08:51:00,prt,94.75
2023-01-10T08:52:00,prt,110.61
2023-01-10T08:53:00,prt,98.69
2023-01-10T08:54:00,prt,96.01
2023-01-10T08:55:00,prt,87.73
2023-01-10T08:56:00,prt,89.31
2023-01-10T08:57:00,prt,91.01
2023-01-10T08:58:00,prt,86.14
2023-01-10T08:59:00,prt,90.65
2023-01-10T09:00:00,prt,89.94
2023-01-10T09:01:00,prt,97.99
2023-01-10T09:02:00,prt,94.14
2023-01-10T09:03:00,prt,104.39
2023-01-10T09:04:00,prt,86.29
2023-01-10T09:05:00,prt,88.46
2023-01-10T09:06:00,prt,89.43
2023-01-10T09:07:00,prt,88.42
2023-01-10T09:08:00,prt,94.12
2023-01-10T09:09:00,prt,98.71
2023-01-10T09:10:00,prt,102.27
2023-01-10T09:11:00,prt,93.71
2023-01-10T09:12:00,prt,91.09
2023-01-10T09:13:00,prt,99.13
2023-01-10T09:14:00,prt,96.21
2023-01-10T09:15:00,prt,85.35
2023-01-10T09:16:00,prt,94.69
2023-01-10T09:17:00,prt,95.55
2023-01-10T09:18:00,prt,96.30
2023-01-10T09:19:00,prt,95.75
2023-01-10T09:20:00,prt,81.32
2023-01-10T09:21:00,prt,80.39
2023-01-10T09:22:00,prt,84.59
2023-01-10T09:23:00,prt,91.25
2023-01-10T09:24:00,prt,96.92
2023-01-10T09:25:00,prt,95.05
2023-01-10T09:26:00,prt,107.45
2023-01-10T09:27:00,prt,106.85
2023-01-10T09:28:00,prt,103.36
2023-01-10T09:29:00,prt,95.83
2023-01-10T09:30:00,prt,95.24
2023-01-10T09:31:00,prt,96.24
2023-01-10T09:32:00,prt,111.50
2023-01-10T09:33:00,prt,92.75
2023-01-10T09:34:00,prt,92.51
2023-01-10T09:35:00,prt,95.84
2023-01-10T09:36:00,prt,95.38
2023-01-10T09:37:00,prt,89.42
2023-01-10T09:38:00,prt,94.09
2023-01-10T09:39:00,prt,102.84
2023-01-10T09:40:00,prt,89.82
2023-01-10T09:41:00,prt,87.98
2023-01-10T09:42:00,prt,86.72
2023-01-10T09:43:00,prt,88.88
2023-01-10T09:44:00,prt,88.70
2023-01-10T09:45:00,prt,88.59
2023-01-10T09:46:00,prt,96.38
2023-01-10T09:47:00,prt,101.02
2023-01-10T09:48:00,prt,100.35
2023-01-10T09:49:00,prt,96.18
2023-01-10T09:50:00,prt,90.66
2023-01-10T09:51:00,prt,99.33
2023-01-10T09:52:00,prt,97.96
2023-01-10T09:53:00,prt,92.86
2023-01-10T09:54:00,prt,94.93
2023-01-10T09:55:00,prt,90.08
2023-01-10T09:56:00,prt,87.41
2023-01-10T09:57:00,prt,89.08
2023-01-10T09:58:00,prt,94.27
2023-01-10T09:59:00,prt,97.10
2023-01-10T10:00:00,prt,95.11
2023-01-10T10:01:00,prt,85.74
2023-01-10T10:02:00,prt,86.39
2023-01-10T10:03:00,prt,91.00
2023-01-10T10:04:00,prt,105.59
2023-01-10T10:05:00,prt,98.79
2023-01-10T10:06:00,prt,115.28
2023-01-10T10:07:00,prt,101.48
2023-01-10T10:08:00,prt,98.65
2023-01-10T10:09:00,prt,106.87
2023-01-10T10:10:00,prt,96.06
2023-01-10T10:11:00,prt,98.66
2023-01-10T10:12:00,prt,92.29
2023-01-10T10:13:00,prt,91.94
2023-01-10T10:14:00,prt,101.99
2023-01-10T10:15:00,prt,99.02
2023-01-10T10:16:00,prt,106.93
2023-01-10T10:17:00,prt,101.47
2023-01-10T10:18:00,prt,86.45
2023-01-10T10:19:00,prt,86.24
2023-01-10T10:20:00,prt,87.18
2023-01-10T10:21:00,prt,86.65
2023-01-10T10:22:00,prt,86.62
2023-01-10T10:23:00,prt,100.15
2023-01-10T10:24:00,prt,101.47
2023-01-10T10:25:00,prt,95.28
2023-01-10T10:26:00,prt,89.76
2023-01-10T10:27:00,prt,92.84
2023-01-10T10:28:00,prt,87.08
2023-01-10T10:29:00,prt,98.87
2023-01-10T10:30:00,prt,101.72
2023-01-10T10:31:00,prt,102.22
2023-01-10T10:32:00,prt,94.57
2023-01-10T10:33:00,prt,90.82
2023-01-10T10:34:00,prt,85.37
2023-01-10T10:35:00,prt,92.53
2023-01-10T10:36:00,prt,97.89
2023-01-10T10:37:00,prt,93.47
2023-01-10T10:38:00,prt,92.47
2023-01-10T10:39:00,prt,107.93
2023-01-10T10:40:00,prt,108.72
2023-01-10T10:41:00,prt,112.18
2023-01-10T10:42:00,prt,108.55
2023-01-10T10:43:00,prt,102.62
2023-01-10T10:44:00,prt,91.20
2023-01-10T10:45:00,prt,94.40
2023-01-10T10:46:00,prt,90.65
2023-01-10T10:47:00,prt,91.82
2023-01-10T10:48:00,prt,96.06
2023-01-10T10:49:00,prt,100.58
2023-01-10T10:50:00,prt,95.61
2023-01-10T10:51:00,prt,86.30
2023-01-10T10:52:00,prt,88.50
2023-01-10T10:53:00,prt,94.46
2023-01-10T10:54:00,prt,97.83
2023-01-10T10:55:00,prt,89.55
2023-01-10T10:56:00,prt,90.36
2023-01-10T10:57:00,prt,86.31
2023-01-10T10:58:00,prt,90.96
2023-01-10T10:59:00,prt,88.20
2023-01-10T11:00:00,prt,83.62
2023-01-10T11:01:00,prt,92.19
2023-01-10T11:02:00,prt,98.25
2023-01-10T11:03:00,prt,89.28
2023-01-10T11:04:00,prt,90.09
2023-01-10T11:05:00,prt,94.16
2023-01-10T11:06:00,prt,94.19
2023-01-10T11:07:00,prt,94.83
2023-01-10T11:08:00,prt,90.16
2023-01-10T11:09:00,prt,104.44
2023-01-10T11:10:00,prt,95.95
2023-01-10T11:11:00,prt,98.39
2023-01-10T11:12:00,prt,93.43
2023-01-10T11:13:00,prt,94.00
2023-01-10T11:14:00,prt,103.93
2023-01-10T11:15:00,prt,90.36
2023-01-10T11:16:00,prt,94.03
2023-01-10T11:17:00,prt,96.78
2023-01-10T11:18:00,prt,98.37
2023-01-10T11:19:00,prt,106.58
2023-01-10T11:20:00,prt,90.55
2023-01-10T11:21:00,prt,88.59
2023-01-10T11:22:00,prt,91.70
2023-01-10T11:23:00,prt,83.41
2023-01-10T11:24:00,prt,87.35
2023-01-10T11:25:00,prt,96.93
2023-01-10T11:26:00,prt,87.60
2023-01-10T11:27:00,prt,87.05
2023-01-10T11:28:00,prt,85.12
2023-01-10T11:29:00,prt,86.01
2023-01-10T11:30:00,prt,87.28
2023-01-10T11:31:00,prt,91.24
2023-01-10T11:32:00,prt,101.63
2023-01-10T11:33:00,prt,97.39
2023-01-10T11:34:00,prt,90.69
2023-01-10T11:35:00,prt,92.28
2023-01-10T11:36:00,prt,89.77
2023-01-10T11:37:00,prt,99.29
2023-01-10T11:38:00,prt,99.22
2023-01-10T11:39:00,prt,100.03
2023-01-10T11:40:00,prt,113.63
2023-01-10T11:41:00,prt,94.23
2023-01-10T11:42:00,prt,98.93
2023-01-10T11:43:00,prt,97.52
2023-01-10T11:44:00,prt,94.16
2023-01-10T11:45:00,prt,94.82
2023-01-10T11:46:00,prt,100.10
2023-01-10T11:47:00,prt,99.99
2023-01-10T11:48:00,prt,89.98
2023-01-10T11:49:00,prt,101.20
2023-01-10T11:50:00,prt,98.35
2023-01-10T11:51:00,prt,103.77
2023-01-10T11:52:00,prt,106.16
2023-01-10T11:53:00,prt,104.18
2023-01-10T11:54:00,prt,99.34
2023-01-10T11:55:00,prt,99.28
2023-01-10T11:56:00,prt,95.18
2023-01-10T11:57:00,prt,94.28
2023-01-10T11:58:00,prt,104.42
2023-01-10T11:59:00,prt,103.01
2023-01-10T12:00:00,prt,111.80
2023-01-10T12:01:00,prt,113.41
2023-01-10T12:02:00,prt,101.44
2023-01-10T12:03:00,prt,108.64
2023-01-10T12:04:00,prt,104.82
2023-01-10T12:05:00,prt,107.28
2023-01-10T12:06:00,prt,105.23
2023-01-10T12:07:00,prt,103.35
2023-01-10T12:08:00,prt,99.13
2023-01-10T12:09:00,prt,97.72
2023-01-10T12:10:00,prt,97.61
2023-01-10T12:11:00,prt,98.09
2023-01-10T12:12:00,prt,100.70
2023-01-10T12:13:00,prt,106.06
2023-01-10T12:14:00,prt,108.12
2023-01-10T12:15:00,prt,106.82
2023-01-10T12:16:00,prt,109.90
2023-01-10T12:17:00,prt,99.25
2023-01-10T12:18:00,prt,95.69
2023-01-10T12:19:00,prt,97.83
2023-01-10T12:20:00,prt,97.51
2023-01-10T12:21:00,prt,104.97
2023-01-10T12:22:00,prt,102.93
2023-01-10T12:23:00,prt,90.72
2023-01-10T12:24:00,prt,89.26
2023-01-10T12:25:00,prt,104.66
2023-01-10T12:26:00,prt,101.86
2023-01-10T12:27:00,prt,109.83
2023-01-10T12:28:00,prt,104.78
2023-01-10T12:29:00,prt,94.70
2023-01-10T12:30:00,prt,90.01
2023-01-10T12:31:00,prt,93.67
2023-01-10T12:32:00,prt,96.02
2023-01-10T12:33:00,prt,116.66
2023-01-10T12:34:00,prt,95.99
2023-01-10T12:35:00,prt,96.21
2023-01-10T12:36:00,prt,110.17
2023-01-10T12:37:00,prt,99.34
2023-01-10T12:38:00,prt,112.70
2023-01-10T12:39:00,prt,112.95
2023-01-10T12:40:00,prt,113.72
2023-01-10T12:41:00,prt,111.11
2023-01-10T12:42:00,prt,94.98
2023-01-10T12:43:00,prt,81.66
2023-01-10T12:44:00,prt,98.30
2023-01-10T12:45:00,prt,100.82
2023-01-10T12:46:00,prt,96.29
2023-01-10T12:47:00,prt,92.52
2023-01-10T12:48:00,prt,100.06
2023-01-10T12:49:00,prt,106.84
2023-01-10T12:50:00,prt,106.82
2023-01-10T12:51:00,prt,108.75
2023-01-10T12:52:00,prt,120.19
2023-01-10T12:53:00,prt,116.68
2023-01-10T12:54:00,prt,111.38
2023-01-10T12:55:00,prt,102.70
2023-01-10T12:56:00,prt,99.13
2023-01-10T12:57:00,prt,94.63
2023-01-10T12:58:00,prt,92.87
2023-01-10T12:59:00,prt,96.63
2023-01-10T13:00:00,prt,96.69
2023-01-10T13:01:00,prt,91.36
2023-01-10T13:02:00,prt,95.56
2023-01-10T13:03:00,prt,95.99
2023-01-10T13:04:00,prt,104.88
2023-01-10T13:05:00,prt,101.71
2023-01-10T13:06:00,prt,93.18
2023-01-10T13:07:00,prt,87.62
2023-01-10T13:08:00,prt,85.31
2023-01-10T13:09:00,prt,86.68
2023-01-10T13:10:00,prt,92.33
2023-01-10T13:11:00,prt,92.65
2023-01-10T13:12:00,prt,94.41
2023-01-10T13:13:00,prt,95.54
2023-01-10T13:14:00,prt,95.51
2023-01-10T13:15:00,prt,94.27